Location: Falkenberg
(48.1196°N, 10.7438°E)
Time: 15:44:56
(UTC+00:00)

Daily predictions for brighter satellites

Satellite Brightness Start Highest point End
(mag) Time Altitude Azimuth Time Altitude Azimuth Time Altitude Azimuth
FALCON 9 R/B 3.9 19:31:26 10° SW 19:35:11 22° S 19:42:59 10° SE
SPOT 5 2.8 19:39:22 10° SSE 19:43:44 62° ENE 19:48:02 10° N
Cosmos 2221 3.8 19:39:37 10° SSW 19:43:46 44° WNW 19:47:55 10° N
Cosmos 1634 Rocket 4.2 19:39:13 10° NNW 19:45:29 76° W 19:51:40 10° S
Sich 1 3.7 19:43:32 10° N 19:47:40 39° ENE 19:51:47 10° SE
Cosmos 1726 1.8 19:47:56 10° NNW 19:51:03 76° W 19:54:08 10° S
Cosmos 1805 Rocket 4.1 19:47:12 10° N 19:51:25 43° ENE 19:55:38 10° SSE
Cosmos 1842 Rocket 3.8 19:51:51 10° SSW 19:56:16 77° W 20:00:40 10° N
Cosmos 1733 3.6 19:53:00 10° N 19:56:19 39° ENE 19:59:38 10° SSE
SL-8 R/B 3.8 19:53:57 10° W 19:58:42 85° N 20:03:29 10° E
Ariane Rocket 3.5 19:56:17 10° SE 20:01:06 46° ENE 20:05:57 10° N
Lacrosse 5 rocket 3.6 19:58:14 10° NW 20:01:45 24° N 20:05:13 10° ENE
USA 234 4.2 19:56:17 10° NE 20:02:36 53° NNW 20:08:54 10° W
CZ-4C R/B 3.7 20:09:14 10° N 20:13:08 70° WNW 20:17:09 10° SSW
ERS-1 Rocket 3.0 20:08:29 10° SSE 20:13:30 78° ENE 20:18:33 10° NNW
USA 59 Rocket 0.1 20:11:32 10° NW 20:15:26 89° NE 20:20:15 13° SE
SPOT 3 Rocket 3.8 20:10:36 11° SE 20:15:27 55° ENE 20:20:28 10° N
Cosmos 614 Rocket 4.2 20:11:12 10° S 20:16:11 49° ESE 20:21:12 10° NNE
Cosmos 1818 4.0 20:12:19 10° S 20:17:24 42° ESE 20:22:33 10° NE
Cosmos 1340 Rocket 2.8 20:13:45 10° S 20:17:41 62° E 20:21:38 10° NNE
Lacrosse 4 Rocket 1.7 20:14:06 10° NNW 20:18:09 57° NE 20:21:37 14° SE
NOSS 2-1 (E) 3.6 20:14:35 10° NW 20:18:30 87° SW 20:23:14 13° SE
Meteor 1-27 Rocket 3.7 20:14:45 10° S 20:20:14 75° E 20:25:49 10° NNE
Resurs 01 Rocket 4.2 20:19:06 10° SW 20:22:08 18° W 20:25:11 10° NW
NOSS 8 (A) 4.4 20:18:28 10° SW 20:22:31 89° ESE 20:25:40 10° NE
IRS-1C Rocket 4.4 20:18:05 10° S 20:23:19 67° WSW 20:28:35 10° NNW
Okean O Rocket 4.0 20:21:17 10° SW 20:24:34 20° W 20:27:51 10° NW
Terra 1.8 20:24:14 11° SSE 20:28:43 90° E 20:33:28 10° NNW
Cosmos 1833 Rocket 3.9 20:26:09 14° SE 20:29:34 23° ESE 20:33:54 10° NE
Cosmos 1805 3.4 20:26:23 10° N 20:30:02 52° ENE 20:32:42 17° SSE
NOSS 2-1 (D) 3.8 20:27:46 10° NW 20:31:39 65° SW 20:35:55 15° SSE
Cosmos 1656 3.8 20:27:13 10° NNW 20:32:41 66° ENE 20:37:08 16° SE
Cosmos 1743 Rocket 3.7 20:30:21 10° NNW 20:34:47 76° W 20:38:55 12° S
Helios 1B 4.5 20:36:19 10° NNE 20:40:39 73° ESE 20:44:56 10° S
Okean 1 4.2 20:37:06 10° SSW 20:40:50 47° WNW 20:44:38 10° N
ARGOS Delta rocket 4.5 20:39:10 10° S 20:43:56 53° W 20:48:29 10° NNW
Centaur D AC-29 4.4 20:38:15 10° SSW 20:44:33 24° SSE 21:07:21 10° ESE
DELTA 2 R/B (1) 4.4 20:41:44 10° SW 20:46:29 29° SSE 20:50:45 12° ESE
Cosmos 1151 Rocket 3.0 20:43:27 10° S 20:47:47 89° W 20:52:08 10° N
Landsat 5 3.6 20:45:00 10° NNE 20:48:40 46° E 20:51:04 20° SSE
Cosmos 1428 Rocket 4.5 20:42:46 11° S 20:48:43 70° E 20:54:47 10° NNE
Cosmos 1975 2.8 20:47:21 10° N 20:51:18 71° E 20:53:47 21° SSE
Cosmos 1992 Rocket 4.0 20:49:32 10° NNW 20:54:47 81° WSW 20:58:33 19° SSE
Meteor 1-18 Rocket 4.5 20:52:54 15° S 20:57:44 59° E 21:03:31 10° NNE
MOS 1 Rocket 3.8 20:54:08 15° S 20:58:30 71° WSW 21:03:55 10° NNW
GEOS 3 Rocket 4.4 20:54:15 10° ENE 20:58:46 30° ESE 21:01:25 19° SSE
USA 281 3.3 20:54:10 18° SE 20:59:17 75° ENE 21:05:54 10° NNW
Cosmos 220 Rocket 4.2 20:57:37 10° SSW 21:01:56 71° WNW 21:06:15 10° NNE
NOSS 3-3 (A) 3.7 20:57:59 10° SSW 21:03:25 75° SE 21:09:46 10° NE
ARIANE 5 R/B 3.8 21:02:57 18° ESE 21:05:22 30° ENE 21:09:09 10° N
Cosmos 1092 Rocket 4.0 21:01:47 15° S 21:07:08 74° E 21:13:28 10° NNE
Cosmos 1328 Rocket 3.5 21:05:06 22° S 21:07:48 63° E 21:12:04 10° NNE
Cosmos 1340 4.3 21:07:01 10° NW 21:09:50 24° W 21:12:29 11° SSW
Cosmos 2195 Rocket 4.5 21:07:42 12° S 21:13:26 86° W 21:19:36 10° N
BREEZE-M DEB (TANK) 4.3 21:15:40 21° ESE 21:15:40 21° ESE 21:18:08 10° E
Cosmos 1140 Rocket 4.1 21:14:22 24° SSE 21:16:48 37° ESE 21:21:35 10° NE
MetOp-A 3.9 21:14:04 23° S 21:17:08 79° WSW 21:22:14 10° NNW
Cosmos 1515 Rocket 4.2 21:17:02 27° SE 21:18:46 38° E 21:22:46 10° NNE
Cosmos 1626 1.7 21:17:57 29° SSW 21:19:27 85° WNW 21:22:41 10° N
NOSS 3-4 (A) 4.1 21:13:15 10° NW 21:19:56 63° NE 21:26:14 16° ESE
NOSS 3-4 (C) 4.1 21:13:21 10° NW 21:20:02 63° NE 21:26:21 16° ESE
Cosmos 1707 3.8 21:26:10 25° ESE 21:26:48 26° E 21:29:53 10° NNE
Cosmos 1697 Rocket 2.7 21:22:11 10° NNW 21:27:50 74° ENE 21:31:08 26° SE
BREEZE-M DEB (TANK) 2.8 21:18:38 10° WSW 21:28:25 81° SSE 21:31:22 10° ENE
Cosmos 1470 Rocket 3.5 21:25:07 10° N 21:29:35 79° ENE 21:31:41 31° SSE
Cosmos 1633 Rocket 3.4 21:28:06 10° NNW 21:32:29 62° W 21:34:53 25° SSW
Orbus 7S? 3.3 21:30:52 10° SW 21:36:25 60° SE 21:39:28 10° ENE
NOSS 3-3 (C) 4.0 21:31:42 10° SW 21:37:09 74° NW 21:43:41 10° NE
Cosmos 1980 Rocket 2.9 21:32:27 10° NNW 21:37:59 47° NE 21:41:37 20° ESE
Cosmos 1666 Rocket 4.4 21:34:16 10° NNW 21:38:21 43° W 21:40:51 21° SSW
Lacrosse 5 rocket 2.4 21:36:55 10° NW 21:40:57 42° NNE 21:44:16 14° E
SL-8 R/B 3.6 21:36:25 10° W 21:41:08 67° SSW 21:43:38 27° SE
Cosmos 44 Rocket 3.3 21:38:47 10° NW 21:43:42 70° WSW 21:45:49 33° SSE
Cosmos 1842 3.2 21:44:35 43° SSE 21:45:30 58° E 21:49:08 10° NNE
Cosmos 1674 2.4 21:44:53 47° SSE 21:45:43 68° E 21:49:11 10° NNE
Cosmos 1763 Rocket 4.3 21:44:49 10° NNW 21:49:53 42° ENE 21:52:51 22° ESE
Cosmos 1066 Rocket 4.4 21:46:58 20° SSW 21:51:06 79° W 21:57:01 10° N
Meteor 2-12 Rocket 4.4 21:50:05 25° S 21:53:56 86° E 22:00:08 10° N
Cosmos 1933 Rocket 3.5 21:50:08 10° N 21:54:32 75° E 21:56:09 38° SSE
MINOTAUR 4 R/B 3.4 21:52:35 10° NNE 21:55:33 74° ESE 21:55:42 71° SE
KORONAS-FOTON 3.6 21:55:04 48° SSE 21:55:58 71° E 21:59:41 10° NNE
Lacrosse 4 Rocket 3.4 21:53:17 10° WNW 21:56:01 17° WSW 21:57:32 15° SW
Cosmos 407 Rocket 3.6 21:56:18 32° S 21:58:32 56° ESE 22:03:39 10° NNE
H-2A R/B 2.6 22:01:54 39° SE 22:03:21 69° ENE 22:07:39 10° N
USA 59 Rocket 2.5 22:02:32 10° W 22:05:01 14° WSW 22:06:49 12° SW
Cosmos 1607 4.0 21:58:58 10° SW 22:05:27 89° NW 22:11:59 10° NE
Cosmos 2369 4.1 21:59:58 10° NNW 22:05:38 57° ENE 22:08:52 25° SE
Terra 4.3 22:05:16 10° WSW 22:07:00 12° W 22:08:44 10° WNW
Cosmos 1766 4.4 22:04:51 10° NNW 22:08:15 33° W 22:09:34 26° SW
Cosmos 1833 Rocket 3.1 22:07:46 12° SW 22:13:00 62° WNW 22:18:36 10° NNE
ALOS 2 3.1 22:12:16 32° SE 22:13:52 49° ENE 22:18:07 10° N
COSMOS 2406 3.8 22:15:19 32° SSE 22:17:06 40° ESE 22:22:26 10° NE
SL-16 R/B 3.8 22:12:50 10° NNW 22:17:42 28° NE 22:22:32 10° ESE
Cosmos 1758 4.3 22:17:33 10° N 22:21:06 34° ENE 22:22:00 30° ESE
Cosmos 1470 3.2 22:19:16 10° NNW 22:22:50 48° W 22:23:37 40° SW
S3M 4.0 22:19:36 10° N 22:26:02 86° W 22:29:12 33° S
Cosmos 2082 Rocket 2.4 22:23:56 35° S 22:26:08 56° ESE 22:31:43 10° NE
Cosmos 2251 Rocket 3.4 22:24:49 33° SSW 22:27:17 87° ESE 22:32:38 10° NNE
Cosmos 1707 Rocket 4.5 22:28:05 31° ESE 22:29:05 34° E 22:33:07 10° NNE
Cosmos 2360 Rocket 4.4 22:25:27 10° N 22:29:37 20° NE 22:33:46 10° E
DELTA 2 R/B (1) 4.2 22:27:08 10° WSW 22:31:29 33° SSW 22:31:29 33° SSW
Meteor 2-10 Rocket 3.9 22:30:35 10° N 22:36:24 69° ENE 22:38:54 34° SSE
GEOS 3 Rocket 4.1 22:31:56 10° NE 22:37:03 60° NW 22:42:04 10° WSW
SL-08 ROCKET BODY 4.4 22:34:31 32° S 22:37:36 89° W 22:43:48 10° N
Cosmos 1908 3.6 22:35:20 10° NNW 22:38:46 45° W 22:39:14 42° WSW
ARIANE 5 R/B 3.8 22:40:25 26° SW 22:41:43 31° W 22:45:35 10° NNW
Meteor 1-13 Rocket 4.4 22:40:24 30° SSW 22:43:26 75° WNW 22:49:18 10° N
Cosmos 2315 Rocket 4.0 22:40:16 10° N 22:46:37 88° W 22:49:34 35° S
H-2A R/B 2.9 22:44:49 10° NNE 22:48:55 36° E 22:49:42 34° ESE
USA 267 4.2 22:44:49 10° ENE 22:50:11 26° SE 22:51:04 26° SE
Cosmos 1346 Rocket 3.1 22:54:22 10° N 22:58:12 54° ENE 22:58:57 45° ESE
Meteor 1-22 Rocket 4.3 22:53:48 10° NNW 22:59:06 60° W 23:01:09 36° SSW
Spot 4 4.4 22:58:19 35° SW 22:59:43 45° W 23:04:19 10° NNW
SL-4 R/B 4.4 23:02:20 12° ESE 23:02:20 12° ESE 23:02:53 10° E
Cosmos 1707 4.4 23:00:27 19° WSW 23:01:47 23° WNW 23:04:45 10° NNW
Cosmos 1733 Rocket 3.0 22:57:45 10° N 23:02:07 83° E 23:03:12 51° SSE
Cosmos 1400 Rocket 2.7 23:02:59 57° SSW 23:03:44 79° W 23:07:42 10° N
Cosmos 2278 3.9 22:58:13 10° NNW 23:03:56 67° ENE 23:07:02 28° SE
Cosmos 1300 2.3 23:02:51 10° NNW 23:06:26 77° W 23:06:40 72° SW
SL-24 R/B 4.4 23:02:20 10° NNE 23:07:11 84° ESE 23:09:07 40° S
Cosmos 1697 Rocket 4.3 23:07:18 10° NW 23:11:09 19° W 23:12:51 17° WSW
Cosmos 2322 Rocket 3.2 23:07:20 10° NNW 23:12:42 42° NE 23:17:17 14° ESE
Meteor 1-21 4.2 23:11:02 38° S 23:13:18 78° E 23:19:05 10° NNE
Cosmos 841 Rocket 3.7 23:08:26 10° NNW 23:13:41 68° ENE 23:16:05 32° SE
Okean 1-7 3.6 23:18:10 38° SE 23:19:07 45° E 23:23:16 10° NNE
Lacrosse 5 rocket 1.7 23:15:22 10° WNW 23:19:04 44° WSW 23:19:04 44° WSW
Cosmos 2228 Rocket 3.3 23:19:15 43° SW 23:20:34 64° WNW 23:25:05 10° N
Cosmos 1980 Rocket 3.2 23:16:46 10° NW 23:21:48 33° WSW 23:23:22 28° SW
USA 234 3.9 23:20:55 10° E 23:27:17 56° NNE 23:33:40 10° NW
Cosmos 1356 Rocket 3.4 23:27:09 54° SSW 23:28:01 77° WNW 23:32:12 10° N
Cosmos 2333 Rocket 3.4 23:22:51 10° NNW 23:28:15 40° NE 23:33:38 10° ESE
Cosmos 540 Rocket 4.1 23:24:18 10° NW 23:29:09 42° WSW 23:30:28 35° SW
Cosmos 1953 2.6 23:27:26 10° N 23:31:17 56° ENE 23:32:08 44° SE
Genesis I 3.6 23:33:03 41° ESE 23:33:03 41° ESE 23:36:06 10° NE
SL-14 R/B 4.1 23:36:11 34° WSW 23:37:00 39° WNW 23:40:37 10° N
GP-B 3.8 23:32:51 10° N 23:37:03 44° W 23:38:18 35° WSW
Cosmos 1703 Rocket 4.1 23:38:29 38° SE 23:39:42 50° E 23:44:02 10° NNE
Cosmos 1455 2.1 23:39:19 10° N 23:42:47 62° E 23:43:13 55° ESE
Cosmos 1862 Rocket 4.0 23:42:08 38° SW 23:43:22 50° WNW 23:47:37 10° N
Aureole 3 3.3 23:44:35 45° WNW 23:44:36 45° WNW 23:47:45 10° N
SJ 16-02 2.6 23:45:36 25° SE 23:46:36 28° E 23:50:16 10° NE
Cosmos 676 Rocket 4.5 23:44:45 29° SW 23:47:21 56° WNW 23:52:38 10° NNE
RESURS DK-1 3.4 23:44:41 10° NNW 23:48:35 43° NE 23:51:06 19° ESE
ALOS 2 4.3 23:49:40 19° WSW 23:50:28 19° W 23:53:41 10° NW
